MMS 4

Last updated on Sun Apr 12 2026 00:02:44 GMT+0000 (Coordinated Universal Time)

1 40485U 15011D 26101.58335647 -.00001083 00000+0 00000+0 0 9991 2 40485 71.1602 349.7312 8388929 165.9110 344.9852 0.28116664 1313
UTC large
Height (km)
Speed (km/s)
/
Latitude / Longitude
Inclination (degrees)
Orbital Period (minutes)
Azimuth
Elevation
Range (km)
Doppler Factor

Next 0 passes for location: London (51.5072 / 0.1276)

Sorry there are no passes over London.
MMS 4